KI4KWR-1 Weather Reports


time (UTC)temp
F
wind
direction
speed
knots
gust
knots
rain 1hr
in
rain 24hr
in
rain mn
in
humidity
%
barometer
mb
20260906070004 77 95 4.3 8.7 0.00 0.00 0.00 76 985.8
20260906064504 77 356 4.3 8.7 0.00 0.00 0.00 78 985.7
20260906063003 76 345 2.6 2.6 0.00 0.00 0.00 79 984.6
20260906061503 76 122 0.0 4.3 0.00 0.00 0.00 79 984.5
20260906060003 76 103 2.6 4.3 0.00 0.00 0.00 79 984.3
20260906054503 73 22 0.0 0.0 0.00 0.00 0.00 85 983.8
20260906053003 74 135 0.0 0.0 0.00 0.00 0.00 85 983.6
20260906051505 74 248 0.0 0.0 0.00 0.00 0.00 85 983.4
20260906050004 74 112 0.0 0.0 0.00 0.00 0.00 84 983.9
20260906044503 74 112 0.0 0.0 0.00 0.00 0.00 84 984.1
20260906043004 74 112 0.0 0.0 0.00 0.00 0.00 83 984.1
20260906041503 74 112 0.0 0.0 0.00 0.00 0.00 83 984.1
20260906040004 75 270 0.0 0.0 0.00 0.00 0.00 81 984.2
20260906034504 75 270 0.0 0.0 0.00 0.00 0.00 80 984.1
20260906033004 76 112 0.0 0.0 0.00 0.00 0.00 79 984.1
20260906031504 76 112 0.0 0.0 0.00 0.00 0.00 78 984.1
20260906030004 76 135 0.0 1.7 0.00 0.00 0.00 78 983.9
20260906024503 76 112 1.7 1.7 0.00 0.00 0.00 78 983.7
20260906023003 76 135 0.0 1.7 0.00 0.00 0.00 76 983.7
20260906021503 77 112 0.0 0.9 0.00 0.00 0.00 75 983.4
20260906020005 78 180 0.0 0.0 0.00 0.00 0.00 72 983.1
20260906014504 78 0 0.0 0.9 0.00 0.00 0.00 70 983.2
20260906013004 79 248 1.7 1.7 0.00 0.00 0.00 69 983.1
20260906011504 80 0 0.0 1.7 0.00 0.00 0.00 67 983.0
20260906010004 80 180 0.9 2.6 0.00 0.00 0.00 66 982.9
20260906004504 82 112 0.0 0.0 0.00 0.00 0.00 61 982.9
20260906003004 83 151 0.0 0.0 0.00 0.00 0.00 60 982.7
20260906001503 84 112 1.7 4.3 0.00 0.00 0.00 59 983.0
20260906000004 85 112 4.3 5.2 0.00 0.00 0.00 58 983.1
20260905234504 87 112 2.6 4.3 0.00 0.00 0.00 57 982.8
20260905233004 88 115 2.6 5.2 0.00 0.00 0.00 57 982.9
20260905231503 92 90 5.2 8.7 0.00 0.00 0.00 50 982.8
20260905230003 96 303 2.6 5.2 0.00 0.00 0.00 49 982.4
20260905224503 97 237 3.5 6.1 0.00 0.00 0.00 46 982.4
20260905223004 98 276 2.6 7.0 0.00 0.00 0.00 46 982.4
20260905221503 99 272 4.3 7.0 0.00 0.00 0.00 43 982.3
20260905220003 99 285 2.6 6.1 0.00 0.00 0.00 43 982.5
20260905214504 100 268 1.7 6.1 0.00 0.00 0.00 42 982.6
20260905213004 100 252 3.5 6.1 0.00 0.00 0.00 42 982.5
20260905211503 99 303 3.5 6.1 0.00 0.00 0.00 45 982.6
20260905210004 97 337 2.6 5.2 0.00 0.00 0.00 45 982.6
20260905204503 96 2 2.6 5.2 0.00 0.00 0.00 48 982.8
20260905203004 98 339 1.7 4.3 0.00 0.00 0.00 44 983.0
20260905201504 97 155 1.7 5.2 0.00 0.00 0.00 44 983.2
20260905200004 96 341 2.6 5.2 0.00 0.00 0.00 46 983.6
20260905194503 97 8 2.6 5.2 0.00 0.00 0.00 47 983.7
20260905193003 99 205 2.6 6.1 0.00 0.00 0.00 44 983.8
20260905191504 99 308 2.6 5.2 0.00 0.00 0.00 46 984.0
20260905190003 95 41 2.6 5.2 0.00 0.00 0.00 50 984.4
20260905184504 96 332 1.7 4.3 0.00 0.00 0.00 49 984.6
20260905183004 97 30 2.6 5.2 0.00 0.00 0.00 47 984.7
20260905181504 96 184 2.6 5.2 0.00 0.00 0.00 49 984.9
20260905180004 99 349 2.6 4.3 0.00 0.00 0.00 47 985.0
20260905174504 96 258 2.6 5.2 0.00 0.00 0.00 49 985.0
20260905173004 96 128 1.7 4.3 0.00 0.00 0.00 51 985.1
20260905171504 95 323 2.6 5.2 0.00 0.00 0.00 52 985.1
20260905170004 95 23 1.7 5.2 0.00 0.00 0.00 52 985.5
20260905164504 95 294 2.6 4.3 0.00 0.00 0.00 52 985.7
20260905163004 92 321 1.7 5.2 0.00 0.00 0.00 56 985.8
20260905161504 89 292 4.3 7.0 0.00 0.00 0.00 63 986.0
20260905160003 89 261 1.7 6.1 0.00 0.00 0.00 65 986.1
20260905154503 86 16 1.7 5.2 0.00 0.00 0.00 71 986.1
20260905153003 83 23 0.0 5.2 0.00 0.00 0.00 76 986.0
20260905151503 80 326 0.0 4.3 0.00 0.00 0.00 92 986.1
20260905150003 79 303 2.6 10.4 0.00 0.00 0.00 91 986.1
20260905144504 87 313 0.0 0.0 0.00 0.00 0.00 64 986.3
20260905143004 85 272 0.0 0.0 0.00 0.00 0.00 68 986.3
20260905141504 83 284 0.0 0.0 0.00 0.00 0.00 72 986.5
20260905140004 82 32 0.0 0.0 0.00 0.00 0.00 76 986.5
20260905134503 80 237 0.0 0.0 0.00 0.00 0.00 78 986.5
20260905133004 79 140 0.0 0.0 0.00 0.00 0.00 82 986.5
20260905131503 78 167 0.0 0.0 0.00 0.00 0.00 83 986.5
20260905130004 77 194 0.0 0.0 0.00 0.00 0.00 87 986.5
20260905124503 76 193 0.0 0.0 0.00 0.00 0.00 89 986.5
20260905123003 74 146 0.0 0.0 0.00 0.00 0.00 91 986.2
20260905121503 72 225 0.0 0.0 0.00 0.00 0.00 92 986.1
20260905120004 71 229 0.0 0.0 0.00 0.00 0.00 92 986.1
20260905114503 71 225 0.0 0.0 0.00 0.00 0.00 92 986.0
20260905113003 71 144 0.0 0.0 0.00 0.00 0.00 92 985.8
20260905111504 71 158 0.0 0.0 0.00 0.00 0.00 92 985.5
20260905110004 71 245 0.0 0.0 0.00 0.00 0.00 92 985.4
20260905104504 71 22 0.0 0.0 0.00 0.00 0.00 92 985.2
20260905103003 71 292 0.0 0.0 0.00 0.00 0.00 91 985.1
20260905101504 71 224 0.0 0.0 0.00 0.00 0.00 91 985.0
20260905100004 71 90 0.0 0.0 0.00 0.00 0.00 91 985.2
20260905094504 71 279 0.0 0.0 0.00 0.00 0.00 91 985.1
20260905093003 71 270 0.0 0.0 0.00 0.00 0.00 91 985.1
20260905091504 71 292 0.0 0.0 0.00 0.00 0.00 90 985.1
20260905090004 71 272 0.0 0.0 0.00 0.00 0.00 90 984.9
20260905084504 72 180 0.0 0.0 0.00 0.00 0.00 90 985.0
20260905083003 72 180 0.0 0.0 0.00 0.00 0.00 90 985.0
20260905081504 72 112 0.0 0.0 0.00 0.00 0.00 90 984.9
20260905080004 72 180 0.0 0.0 0.00 0.00 0.00 90 984.7
20260905074503 72 22 0.0 0.0 0.00 0.00 0.00 90 984.7
20260905073004 72 68 0.0 0.0 0.00 0.00 0.00 89 984.7
20260905071504 73 158 0.0 0.0 0.00 0.00 0.00 89 984.7